Theta_e
324 327 329 334 338 338 337 340 341 343 342 341 342 342 343 342 343 344 341 339 332 335 336 334 332 326 324 323 324 324 324 324 325 325 325 325 325 324 324 324 326 327 327 326 325 323 317 317 320
326 327 331 330 334 336 335 335 339 336 338 341 341 342 344 345 341 341 339 337 332 334 335 335 334 332 326 323 324 324 324 324 324 324 324 324 324 325 327 327 327 327 325 322 318 316 318 322 324
326 327 331 332 333 334 332 332 332 331 335 339 338 341 342 344 340 337 337 332 331 335 336 335 335 335 331 325 324 324 324 323 323 323 323 325 327 328 327 325 323 321 317 315 315 318 323 326 327
324 327 325 332 333 332 331 330 329 332 339 339 339 341 342 341 340 337 336 330 329 334 335 336 336 336 334 329 324 324 324 323 323 323 325 327 328 328 323 318 316 314 314 315 317 321 324 325 324
324 326 330 330 330 328 328 327 328 335 338 343 340 342 343 341 339 338 337 337 328 330 335 336 336 335 333 330 325 324 324 323 323 323 324 327 328 328 319 314 314 314 315 316 318 320 322 321 322
325 324 331 331 329 328 326 325 332 334 338 343 342 342 342 341 340 339 338 339 333 327 333 334 335 335 334 328 325 324 324 324 323 323 324 326 327 327 319 314 314 314 315 316 317 318 319 320 321
324 328 329 327 328 327 327 324 323 332 338 342 342 343 341 340 340 339 340 340 337 329 332 334 335 335 334 329 325 324 324 324 324 323 324 325 326 327 322 316 314 315 315 316 317 317 318 319 320
320 325 326 325 327 328 325 323 321 332 335 339 341 343 341 337 340 339 341 341 338 329 332 332 335 335 334 331 325 325 325 325 325 324 324 324 325 326 325 320 316 315 316 316 317 318 318 320 322
320 323 325 325 325 327 324 321 320 327 334 341 341 341 340 339 338 339 341 339 335 330 332 332 333 333 331 329 325 325 325 326 325 325 324 324 325 325 325 323 320 318 317 317 319 326 331 332 330
319 321 322 322 323 323 321 319 320 323 329 333 341 341 340 341 337 339 341 340 335 332 330 330 330 329 329 326 325 326 326 326 326 326 325 324 325 325 325 325 323 327 319 320 329 333 335 334 335
316 319 320 320 320 319 319 320 319 323 330 331 331 339 339 341 338 339 341 342 337 335 330 326 327 326 325 324 325 326 326 326 326 326 326 325 325 325 325 325 323 331 332 335 335 335 335 336 336
318 317 317 319 318 318 319 319 320 322 324 322 326 337 340 340 337 338 340 343 340 335 334 327 326 325 324 324 324 326 326 326 326 326 326 326 325 325 325 325 325 326 334 336 336 336 336 336 337
316 318 316 318 317 316 316 319 320 321 322 322 324 329 333 341 337 337 338 342 343 339 334 332 329 329 326 325 325 326 327 328 328 326 326 326 326 325 325 325 326 331 334 336 337 337 336 336 337
317 317 317 317 318 318 319 321 318 323 321 321 323 327 328 337 337 337 338 340 342 343 339 334 333 332 330 329 327 327 328 329 329 328 327 328 329 327 326 326 328 332 337 339 338 338 337 337 337
316 318 319 319 319 321 317 323 322 321 321 325 326 331 331 336 337 337 336 337 340 340 341 340 340 337 334 333 331 329 328 328 329 328 328 336 334 331 330 330 331 336 338 337 337 337 337 337 336
318 318 322 322 319 320 320 324 324 320 322 329 333 337 337 337 337 337 337 337 337 340 339 341 341 341 340 337 336 334 331 329 331 328 329 337 336 335 338 337 336 337 331 333 336 337 334 336 335
319 321 321 322 320 320 322 324 324 320 321 325 328 335 338 338 337 336 336 338 337 337 338 339 340 340 341 341 339 339 336 334 334 329 332 337 339 339 340 340 340 338 336 333 335 330 329 334 335
322 322 322 322 322 322 323 324 325 321 321 322 322 325 334 336 327 330 333 336 338 338 337 338 339 340 339 341 341 339 339 338 337 335 335 337 339 340 341 341 340 340 339 336 331 330 329 332 336
319 320 321 323 321 321 324 324 327 325 327 324 323 322 323 322 324 326 329 331 337 340 339 338 338 339 340 340 341 341 339 339 338 337 337 337 339 340 341 342 341 341 340 335 331 329 330 335 335
320 322 324 323 320 322 323 325 324 326 326 327 326 328 329 333 329 323 323 328 333 338 340 340 339 338 338 339 333 336 339 337 338 338 337 338 339 341 342 341 340 339 338 331 327 328 330 335 333
321 323 323 322 322 321 323 326 327 328 328 329 329 330 333 338 326 323 325 322 326 331 337 340 340 340 338 338 338 337 339 338 337 338 337 338 339 341 342 341 340 340 337 333 327 329 335 332 330
324 321 320 321 323 324 322 327 330 328 330 331 329 328 329 337 341 332 325 323 323 324 330 335 339 339 339 338 337 337 337 336 337 337 338 339 340 341 340 340 340 339 338 333 331 332 334 330 322
322 321 322 321 323 323 324 326 330 329 331 330 329 328 328 334 344 344 337 333 329 330 331 331 334 339 339 338 337 336 336 338 338 338 340 340 341 340 339 341 340 338 337 334 333 332 330 322 319
320 322 322 322 324 325 323 325 329 328 328 329 328 327 330 332 337 345 346 339 338 337 336 336 337 337 337 336 334 334 335 337 338 339 340 340 341 339 339 339 339 338 337 336 332 329 321 320 315
321 325 324 324 324 323 322 325 329 326 327 327 328 332 337 337 336 336 338 340 340 340 337 337 336 335 335 335 335 336 338 340 341 341 341 340 338 338 339 339 338 338 336 332 328 322 320 315 311
322 325 325 324 324 323 322 325 325 325 325 326 334 337 337 337 337 338 334 336 343 345 345 343 342 341 339 339 340 341 339 336 336 337 338 338 340 342 343 340 338 336 333 326 322 319 315 313 312
324 325 320 324 321 323 323 325 323 324 328 327 334 336 336 336 337 338 339 338 337 341 346 347 346 344 343 343 340 338 336 332 329 328 333 337 343 343 339 337 336 332 328 323 320 317 314 314 314
324 320 327 325 327 326 325 325 325 328 333 334 335 334 333 333 334 336 337 337 339 341 345 347 348 348 344 343 341 337 334 328 325 328 326 338 339 339 336 336 331 328 324 320 317 315 315 315 315
325 326 323 324 324 327 327 327 324 334 333 332 330 329 329 330 333 336 339 339 337 338 342 346 348 347 345 342 340 338 335 331 327 325 330 336 335 334 334 331 327 323 319 317 316 316 315 314 314
322 323 324 327 327 325 325 326 329 328 325 325 327 327 329 331 332 335 336 337 338 341 341 343 346 345 344 341 339 334 329 327 327 330 333 332 332 329 328 324 321 318 317 317 315 314 314 313 312
Wind_Speed
12 12 6 2 3 1 3 3 2 5 3 5 4 4 4 3 4 3 4 14 26 32 31 27 24 22 21 19 18 17 16 16 15 14 13 12 11 11 11 11 11 12 12 13 13 13 12 10 9
10 10 3 1 3 5 4 2 6 7 5 3 4 6 5 3 7 7 3 19 29 31 31 29 26 23 21 20 18 18 17 15 15 14 14 13 12 11 11 11 12 13 13 14 14 13 11 9 9
9 9 2 2 1 5 4 2 12 11 7 5 3 1 2 1 4 4 5 20 30 32 31 29 27 24 21 20 18 17 17 16 15 15 14 13 12 11 10 11 12 14 15 15 14 13 11 9 9
6 4 4 2 4 1 3 11 12 9 3 8 5 4 1 4 3 3 8 19 28 30 31 29 27 24 21 20 19 18 16 15 15 15 15 14 12 11 10 11 13 15 15 15 14 12 11 10 9
2 2 2 1 4 5 5 11 12 9 2 2 7 2 2 5 5 4 9 16 24 28 30 29 26 23 21 21 20 19 17 16 16 16 15 14 13 10 9 12 13 15 15 14 13 12 11 10 10
1 1 4 2 5 5 8 8 9 11 4 1 3 3 2 5 8 7 13 17 21 26 29 28 26 24 21 20 20 19 17 16 16 16 15 15 12 10 9 12 14 14 14 14 13 12 11 11 11
4 3 6 2 8 6 3 8 12 11 5 3 3 2 2 8 11 9 15 18 19 27 28 28 27 25 22 20 20 19 18 16 15 15 15 14 12 11 9 10 13 14 14 14 13 12 12 12 12
3 3 5 3 3 5 6 14 13 7 5 4 3 3 1 5 14 13 17 18 21 26 27 28 28 25 24 22 21 20 18 16 15 15 15 14 13 12 10 10 12 13 13 13 13 12 13 13 12
4 5 8 4 4 3 8 8 9 9 8 5 5 6 6 3 14 18 20 20 23 26 28 28 28 27 25 24 23 21 19 18 17 16 16 15 15 13 12 11 11 13 13 13 12 12 12 13 12
2 3 6 4 4 8 15 7 14 5 6 7 7 15 13 9 16 21 23 23 26 26 28 29 28 27 26 25 24 23 22 21 20 18 17 17 16 15 13 12 12 13 14 14 13 13 12 11 11
3 4 2 8 12 12 8 9 4 4 6 12 9 12 16 12 20 22 25 23 20 22 27 27 27 27 26 25 25 25 24 23 22 20 19 18 17 17 16 14 14 14 13 14 14 13 13 13 13
3 5 6 7 6 6 7 6 6 10 15 14 10 12 15 17 23 22 25 26 25 25 22 26 27 26 25 26 26 26 25 24 23 22 20 20 20 19 17 16 15 16 16 15 15 15 16 17 16
3 4 5 13 15 13 10 14 11 18 17 16 15 16 17 21 24 21 23 25 26 26 26 25 25 24 26 27 27 27 26 25 24 23 22 22 21 20 18 17 16 16 15 16 17 17 18 19 19
3 11 15 11 8 7 6 9 2 12 17 19 17 20 20 23 25 23 26 28 29 27 28 28 27 27 28 27 27 27 27 26 26 24 23 22 23 22 21 18 16 14 14 17 18 19 20 22 20
4 8 7 1 4 2 4 1 3 16 11 10 15 16 18 24 25 29 24 24 27 25 26 28 27 28 28 27 26 27 27 26 27 26 24 23 23 22 20 20 19 15 9 16 19 20 21 22 20
2 1 3 5 11 2 4 8 5 13 6 9 13 12 17 24 24 26 28 26 25 28 28 27 29 30 29 29 27 27 27 27 26 26 26 24 23 22 21 23 22 21 23 29 21 13 21 24 23
5 3 5 7 4 6 5 9 17 13 6 9 12 15 18 20 26 31 30 29 28 26 29 30 29 30 28 29 28 27 27 27 26 27 28 26 25 25 26 28 29 27 25 22 15 31 28 25 25
4 3 4 5 5 6 7 12 12 12 9 8 10 12 18 22 26 30 34 34 31 30 30 31 33 32 31 34 33 32 32 30 29 30 30 30 30 30 32 33 32 28 22 17 16 16 26 30 25
3 4 5 5 3 4 6 8 11 14 14 11 11 10 14 21 24 26 30 33 36 35 36 34 35 32 35 36 34 39 37 34 34 34 32 31 33 34 36 35 31 26 20 15 18 23 27 26 26
4 5 3 7 3 3 8 6 8 14 13 10 8 10 15 22 28 30 28 31 34 36 40 39 39 34 36 31 22 42 42 36 36 37 35 35 35 34 36 38 34 29 29 9 10 23 22 29 24
2 3 4 5 6 2 10 4 10 12 10 16 21 19 17 16 19 19 26 27 27 32 36 37 39 39 36 34 38 39 41 42 41 41 40 37 34 33 35 34 31 28 22 10 13 25 25 23 19
2 3 3 5 5 3 7 3 7 10 11 13 22 25 26 21 19 17 13 11 19 22 23 27 32 38 38 35 36 38 40 43 43 43 41 35 31 29 31 34 30 28 22 15 30 21 23 17 17
2 2 3 2 1 1 6 1 7 7 16 20 26 28 26 26 21 21 22 18 8 9 9 11 16 24 30 33 35 37 40 40 40 41 38 30 28 25 31 31 27 28 29 27 23 23 15 15 17
2 2 3 2 1 0 3 3 10 10 14 16 23 29 30 31 28 25 22 24 22 17 14 13 9 9 15 22 24 28 32 34 37 38 37 34 31 29 36 38 35 27 21 13 11 11 13 14 14
1 3 4 3 3 4 2 4 13 11 15 13 17 23 26 29 32 31 27 21 21 20 18 17 17 12 10 9 8 10 13 20 27 34 38 35 30 38 39 32 24 17 15 8 10 12 13 14 13
5 2 2 3 4 6 1 1 5 10 16 17 20 24 29 32 29 30 30 23 21 23 20 17 14 9 3 3 6 7 7 17 26 27 25 29 24 23 20 17 15 14 11 11 11 12 13 12 10
2 4 2 3 1 3 3 1 6 17 20 28 25 27 29 29 28 27 27 30 28 24 21 16 11 8 4 7 4 5 10 15 15 19 25 23 17 17 14 13 13 11 11 10 10 12 11 12 12
5 4 2 1 3 7 3 3 4 17 17 17 22 27 27 28 32 33 32 33 30 27 20 16 13 7 6 3 11 12 18 23 30 27 24 18 15 14 14 14 12 8 9 10 11 10 11 13 14
0 1 5 1 2 3 5 1 6 7 10 12 17 20 23 26 28 29 29 30 28 25 18 14 11 9 6 7 11 13 25 31 26 19 17 10 10 10 9 10 5 5 8 10 9 10 11 13 13
3 3 2 2 1 1 2 2 7 6 10 12 15 17 20 23 26 28 30 32 36 30 24 17 13 14 9 9 12 19 21 21 13 10 7 2 2 2 4 4 5 5 6 7 9 10 11 13 13
Wind_Direction
353 355 355 357 255 302 30 20 291 251 224 203 160 191 227 268 202 272 299 177 180 176 174 172 172 170 174 177 174 171 169 169 169 171 171 168 167 166 165 168 167 167 166 166 164 164 162 155 148
352 351 358 1 320 31 35 275 265 286 305 192 210 222 241 260 238 277 193 169 175 178 175 175 175 176 177 182 179 177 175 176 176 173 173 172 173 174 177 181 178 177 176 173 170 166 161 161 161
350 348 325 38 79 12 342 276 312 312 281 233 293 264 301 302 287 270 191 172 174 178 177 179 178 179 180 186 185 183 182 182 180 178 177 178 179 182 190 192 185 182 179 173 172 169 170 171 177
346 340 47 332 333 274 287 332 336 334 136 199 244 259 259 280 291 213 182 174 173 180 181 182 181 183 184 190 190 189 188 185 183 184 184 184 187 190 195 193 187 183 180 178 177 179 181 187 199
359 6 310 4 295 285 286 305 328 336 262 214 204 178 225 220 195 210 199 179 181 184 185 186 185 187 190 193 193 194 192 191 190 189 191 190 194 192 193 190 186 186 185 186 188 193 199 208 219
137 72 266 313 290 301 294 314 340 340 267 276 192 243 223 205 189 189 182 184 188 190 190 190 189 192 196 198 198 198 197 196 196 195 196 198 199 198 198 192 190 191 193 195 202 208 217 227 236
222 232 269 218 285 295 278 330 344 333 302 286 191 285 231 211 189 188 184 194 194 190 193 194 195 196 202 204 203 203 203 202 202 202 203 205 206 208 207 203 199 199 201 204 212 220 229 240 248
170 227 235 208 248 293 304 322 327 300 326 268 237 255 125 223 200 190 190 195 195 193 199 198 198 201 205 208 208 209 209 209 209 212 212 212 215 217 218 215 211 211 211 213 221 229 241 250 259
161 212 245 234 217 299 308 319 320 293 280 256 226 244 248 315 207 187 192 195 194 199 203 204 203 205 208 211 211 212 216 216 216 219 219 219 221 225 226 227 223 221 221 223 230 239 252 262 268
181 230 240 211 235 285 300 279 310 291 281 261 230 251 250 253 214 193 197 196 198 204 206 207 208 209 210 212 214 216 219 221 223 225 225 228 229 232 233 233 230 229 226 228 236 249 259 268 277
158 253 246 265 251 272 274 284 246 270 266 259 268 250 244 228 208 199 204 201 197 200 209 209 211 211 213 215 218 221 223 226 228 231 233 234 235 236 238 239 237 232 228 242 251 256 267 272 275
265 257 244 275 275 275 277 289 254 238 254 289 289 271 254 226 206 205 211 209 208 207 204 212 214 217 218 219 224 227 229 231 234 236 236 238 241 243 244 246 246 239 242 249 257 265 269 271 274
221 280 245 276 289 279 273 267 277 274 277 274 263 253 256 239 215 214 219 215 214 216 216 215 216 220 223 225 227 229 234 237 239 241 242 244 247 249 249 250 246 242 252 262 266 269 274 277 276
260 275 282 291 296 274 284 312 272 315 306 247 252 250 247 235 223 214 221 221 219 221 223 221 223 224 226 229 233 235 238 240 243 245 246 249 251 252 253 251 246 246 262 271 275 275 278 277 272
292 302 305 145 319 295 337 254 241 330 307 258 243 244 232 232 227 221 226 225 226 222 226 228 230 234 235 237 239 241 243 245 247 248 248 252 253 251 251 247 242 245 251 287 278 279 280 279 265
334 269 5 6 344 51 330 352 318 326 308 273 273 259 241 237 237 236 229 233 234 235 230 231 233 239 241 243 244 247 249 249 251 249 249 251 253 251 249 245 237 248 258 258 283 280 296 277 270
27 26 353 324 360 316 358 347 340 358 359 292 278 263 254 250 251 254 246 232 236 238 243 238 236 239 243 244 249 249 250 250 250 247 247 248 251 253 253 250 244 235 243 247 263 293 244 278 275
335 341 317 285 334 324 318 340 356 359 331 304 305 273 257 259 268 264 263 253 236 240 239 243 243 241 243 244 245 246 246 246 246 246 247 249 251 254 256 256 255 249 221 231 320 298 261 272 273
256 265 291 294 290 300 334 331 14 18 8 338 314 298 274 266 269 269 264 262 256 242 243 238 242 241 243 244 251 254 249 248 250 250 251 252 255 257 262 266 265 256 230 304 308 267 263 264 267
226 267 269 286 273 272 345 340 342 5 17 13 352 331 310 299 281 267 266 264 261 260 251 247 245 245 246 242 235 254 255 258 258 258 258 257 259 263 265 267 271 268 274 295 310 290 269 260 262
180 285 322 315 325 137 330 82 10 8 21 32 34 16 360 337 323 305 267 268 268 265 265 255 257 256 250 250 248 256 255 259 261 262 263 262 264 268 266 268 267 259 222 259 280 274 260 254 260
349 247 258 304 307 19 353 70 36 342 341 19 14 7 3 357 9 4 350 302 272 279 281 272 262 257 261 256 258 262 264 265 268 266 268 269 267 266 266 265 256 248 238 293 270 249 251 246 263
302 53 48 41 59 255 20 309 7 351 360 355 354 359 7 13 9 13 27 27 0 332 311 293 276 265 260 263 265 267 269 268 267 273 275 276 267 270 276 273 271 251 261 257 255 226 228 246 260
27 238 67 103 33 102 348 316 50 27 344 348 6 7 9 11 14 20 25 29 25 27 29 26 354 308 278 275 285 288 290 291 297 295 287 280 273 283 286 276 273 260 239 246 220 232 241 259 270
172 24 357 27 22 351 226 263 43 359 14 360 357 11 14 16 19 17 18 22 14 15 11 13 12 353 346 337 314 304 327 333 324 314 302 290 306 288 273 270 258 247 240 222 235 243 262 265 263
42 17 29 324 335 340 252 34 40 5 12 21 21 13 16 17 18 20 20 15 4 9 9 9 10 19 356 345 14 32 1 348 338 323 322 322 302 281 264 253 238 224 215 223 232 256 264 269 272
93 49 21 112 112 261 341 150 210 8 13 11 12 13 9 8 10 13 13 14 12 6 357 3 359 337 13 76 56 319 340 345 330 320 325 303 286 265 236 222 215 206 211 230 251 264 270 272 274
55 119 267 64 284 299 264 264 32 2 359 5 10 8 6 6 8 8 9 10 11 12 9 349 337 10 52 331 305 305 309 327 318 291 310 279 260 239 204 203 189 188 225 250 263 263 270 277 284
11 77 54 61 335 298 296 69 21 14 7 10 12 11 10 10 11 11 11 12 11 12 14 359 347 328 341 337 333 324 319 322 318 300 317 255 243 207 169 168 178 212 245 254 266 275 280 284 288
61 78 56 332 283 192 266 266 33 44 35 26 23 19 17 18 17 16 16 19 24 22 18 5 353 350 352 338 346 352 327 339 1 359 317 283 221 145 142 178 160 199 239 264 275 283 285 289 289